Regional Weather Roundup
Issued by NWS

Home | Current Version | Previous Version | Text Only | Print | Product List | Glossary Off
Versions: 1 2 3 4 5 6 7 8 9 10 11 12 13 14 15 16 17 18 19 20 21 22 23 24 25 26 27 28 29 30 31 32 33 34 35 36 37 38 39 40 41 42 43 44 45 46 47 48 49 50

000
ASUS45 KBOI 310210
RWRID
WEATHER ROUNDUP FOR IDAHO
NATIONAL WEATHER SERVICE BOISE ID
700 PM MST FRI JAN 30 2015

NOTE: "FAIR" INDICATES FEW OR NO CLOUDS BELOW 12000 FEET
WITH NO SIGNIFICANT WEATHER AND/OR OBSTRUCTIONS TO VISIBILITY

IDZ012-014-310300-
SOUTHWEST IDAHO


CITY           SKY/WX    TMP DP  RH WIND       PRES   REMARKS
BOISE          CLEAR     40  32  73 NW3       30.15F
CALDWELL       CLEAR     37  27  65 CALM      30.17F
MOUNTAIN HOME  CLEAR     36  31  83 NW9       30.15S WCI  29
$$

IDZ016-017-310300-
SOUTHCENTRAL IDAHO


CITY           SKY/WX    TMP DP  RH WIND       PRES   REMARKS
BURLEY         CLOUDY    35  30  82 W6        30.12S WCI  30
JEROME         CLOUDY    35  32  88 SE3       30.13S
TWIN FALLS     CLOUDY    36  32  85 S3        30.13S
$$

IDZ019>023-310300-
SOUTHEAST IDAHO


CITY           SKY/WX    TMP DP  RH WIND       PRES   REMARKS
IDAHO FALLS    PTCLDY    33  27  78 NE3       30.09S
POCATELLO      CLEAR     33  30  88 S7        30.10S WCI  27
REXBURG        MOCLDY    29  24  82 E3        30.09R
$$

IDZ006-010-011-018-031-032-310300-
CENTRAL IDAHO MOUNTAINS


CITY           SKY/WX    TMP DP  RH WIND       PRES   REMARKS
MCCALL         CLEAR     29  21  72 CALM      30.11S
HAILEY         MOCLDY    30  27  86 CALM      30.11F
STANLEY          N/A     15   9  76 S5        30.15R WCI   8
SALMON         CLOUDY    28  21  74 N5        30.26S WCI  23
CHALLIS        CLOUDY    26  19  74 CALM      30.22S
$$

IDZ002-004-006-007-026-310300-
NORTHERN IDAHO


CITY           SKY/WX    TMP DP  RH WIND       PRES   REMARKS
LEWISTON       CLOUDY    37  35  92 CALM      30.31R
LOWELL           N/A     32  29  88 CALM      30.29R
COEUR D`ALENE  CLOUDY    30  28  93 W5        30.27S WCI  25
MULLAN PASS    CLEAR     26  23  88 NW8       30.14S WCI  18
$$



USA.gov is the U.S. government's official web portal to all federal, state and local government web resources and services.